Tracking 17264 objects as of 2-September-2015
HD Live streaming from Space Station

Track Soyuz TMA-18M
and Space Station

ARIANE 44L R/B

Track ARIANE 44L R/B now!
ARIANE 44L R/B is classified as:


NORAD ID: 26696
Int'l Code: 2001-005C
Perigee: 308.7 km
Apogee: 32,563.7 km
Inclination: 6.9 °
Period: 571.3 minutes
Semi major axis: 22807 km
RCS: 23.3181 m2 (large)
Launch date: February 7, 2001
Source: France (FR)

Note: This is a ROCKET BODY
Your satellite tracking list
Your tracking list is empty





NASA's NSSDC Master Catalog

Two Line Element Set (TLE):
1 26696U 01005C   15245.08779119  .00003379  00000-0  22225-2 0  9991
2 26696   6.9296 162.0975 7071242  24.0735 126.9466  2.52054627126643

Source of the keplerian elements: AFSPC

N2YO: 431